Date String (YYYY-MM-DD hh:mm:ss) UTC,Instrument flags,Ambient pressure (hPa),Sample flow (lpm),Bypass flow (lpm),Sample temperature (°C),Ambient temperature (°C),ASC tube jacket temperature (°C),LED temperature (°C),Box temperature (°C),Sample RH (%),Span deviation,Mass concentration (μg/m³),Mass concentration (μg/m³),Mass concentration (μg/m³)
DateTimeUTC,F1_M11,P_M11,Q1_M11,Q2_M11,T1_M11,T2_M11,T3_M11,T4_M11,T5_M11,U1_M11,ZSPAN_M11,X2_M11,X0_M11,X1_M11
2022-08-11 04:00:00,,0832.3,5.01,0.00,29.5,28.4,00.0,38.2,31.5,27.4,0000.0,0005.92,0015.28,0004.37
2022-08-11 04:01:00,,0832.3,5.01,0.00,29.5,28.5,00.0,38.2,31.5,27.3,0000.0,0005.93,0015.72,0004.35
2022-08-11 04:02:00,,0832.4,4.99,0.00,29.5,28.3,00.0,38.2,31.5,27.3,0000.0,0005.90,0016.74,0004.32
2022-08-11 04:03:00,,0832.4,5.01,0.00,29.5,27.6,00.0,38.2,31.3,27.4,0000.0,0005.89,0016.72,0004.29
2022-08-11 04:04:00,,0832.4,4.98,0.00,29.4,27.1,00.0,38.2,31.1,27.5,0000.0,0005.91,0016.77,0004.29
2022-08-11 04:05:00,,0832.4,5.00,0.00,29.4,27.1,00.0,38.1,31.1,27.5,0000.0,0005.88,0016.59,0004.28
2022-08-11 04:06:00,,0832.4,5.00,0.00,29.3,27.2,00.0,38.1,31.0,27.7,0000.0,0005.83,0015.51,0004.27
2022-08-11 04:07:00,,0832.4,5.00,0.00,29.3,27.4,00.0,38.1,31.1,27.8,0000.0,0005.72,0015.28,0004.25
2022-08-11 04:08:00,,0832.4,4.99,0.00,29.3,27.6,00.0,38.1,31.2,27.8,0000.0,0005.70,0014.64,0004.23
2022-08-11 04:09:00,,0832.4,5.01,0.00,29.3,27.7,00.0,38.1,31.2,27.8,0000.0,0005.68,0014.49,0004.23
2022-08-11 04:10:00,,0832.4,4.99,0.00,29.3,27.9,00.0,38.1,31.3,27.7,0000.0,0005.70,0013.98,0004.22
2022-08-11 04:11:00,,0832.4,4.99,0.00,29.4,28.1,00.0,38.1,31.4,27.6,0000.0,0005.65,0013.79,0004.21
2022-08-11 04:12:00,,0832.4,5.00,0.00,29.4,28.2,00.0,38.2,31.4,27.5,0000.0,0005.64,0013.48,0004.21
2022-08-11 04:13:00,,0832.5,5.00,0.00,29.5,28.4,00.0,38.2,31.5,27.5,0000.0,0005.66,0013.17,0004.21
2022-08-11 04:14:00,,0832.5,5.00,0.00,29.5,28.5,00.0,38.2,31.5,27.4,0000.0,0005.77,0013.59,0004.22
2022-08-11 04:15:00,,0832.5,5.00,0.00,29.5,28.5,00.0,38.2,31.5,27.3,0000.0,0005.77,0013.59,0004.22
2022-08-11 04:16:00,,0832.4,5.00,0.00,29.5,27.8,00.0,38.2,31.3,27.4,0000.0,0005.76,0013.43,0004.22
2022-08-11 04:17:00,,0832.4,5.01,0.00,29.4,27.2,00.0,38.2,31.2,27.4,0000.0,0005.80,0013.70,0004.22
2022-08-11 04:18:00,,0832.5,4.99,0.00,29.4,27.1,00.0,38.1,31.2,27.5,0000.0,0005.87,0013.85,0004.23
2022-08-11 04:19:00,,0832.4,5.01,0.00,29.3,27.2,00.0,38.1,31.1,27.6,0000.0,0005.91,0014.03,0004.24
2022-08-11 04:20:00,,0832.4,5.00,0.00,29.3,27.3,00.0,38.1,31.1,27.7,0000.0,0005.93,0014.15,0004.24
2022-08-11 04:21:00,,0832.4,4.99,0.00,29.3,27.5,00.0,38.1,31.1,27.7,0000.0,0005.90,0014.21,0004.23
2022-08-11 04:22:00,,0832.5,5.01,0.00,29.3,27.7,00.0,38.1,31.2,27.7,0000.0,0005.86,0014.08,0004.23
2022-08-11 04:23:00,,0832.5,5.00,0.00,29.3,27.8,00.0,38.1,31.3,27.7,0000.0,0005.83,0013.96,0004.22
2022-08-11 04:24:00,,0832.4,5.00,0.00,29.4,28.0,00.0,38.1,31.3,27.7,0000.0,0005.84,0013.49,0004.22
2022-08-11 04:25:00,,0832.5,4.99,0.00,29.4,28.2,00.0,38.2,31.4,27.6,0000.0,0005.75,0012.97,0004.21
2022-08-11 04:26:00,,0832.5,5.01,0.00,29.4,28.3,00.0,38.2,31.4,27.6,0000.0,0005.74,0013.42,0004.20
2022-08-11 04:27:00,,0832.5,5.00,0.00,29.5,28.4,00.0,38.2,31.5,27.5,0000.0,0005.82,0014.17,0004.21
2022-08-11 04:28:00,,0832.4,5.00,0.00,29.5,28.5,00.0,38.2,31.5,27.4,0000.0,0005.78,0014.18,0004.20
2022-08-11 04:29:00,,0832.5,5.00,0.00,29.6,28.4,00.0,38.2,31.5,27.4,0000.0,0005.75,0013.76,0004.17
2022-08-11 04:30:00,,0832.5,5.01,0.00,29.5,27.8,00.0,38.2,31.4,27.4,0000.0,0005.71,0013.26,0004.16
2022-08-11 04:31:00,,0832.5,5.00,0.00,29.5,27.3,00.0,38.2,31.2,27.5,0000.0,0005.71,0013.36,0004.14
2022-08-11 04:32:00,,0832.5,5.00,0.00,29.4,27.2,00.0,38.2,31.2,27.5,0000.0,0005.69,0013.20,0004.14
2022-08-11 04:33:00,,0832.5,5.01,0.00,29.3,27.2,00.0,38.1,31.1,27.7,0000.0,0005.71,0013.93,0004.14
2022-08-11 04:34:00,,0832.5,4.99,0.00,29.3,27.4,00.0,38.1,31.1,27.8,0000.0,0005.74,0013.69,0004.13
2022-08-11 04:35:00,,0832.5,5.01,0.00,29.3,27.5,00.0,38.1,31.2,27.7,0000.0,0005.73,0013.85,0004.13
2022-08-11 04:36:00,,0832.5,5.00,0.00,29.3,27.7,00.0,38.1,31.2,27.8,0000.0,0005.73,0014.32,0004.14
2022-08-11 04:37:00,,0832.5,5.00,0.00,29.4,27.9,00.0,38.1,31.3,27.8,0000.0,0005.72,0013.88,0004.13
2022-08-11 04:38:00,,0832.5,5.00,0.00,29.4,28.0,00.0,38.2,31.3,27.7,0000.0,0005.71,0013.68,0004.13
2022-08-11 04:39:00,,0832.6,4.99,0.00,29.4,28.2,00.0,38.2,31.4,27.7,0000.0,0005.68,0013.39,0004.12
2022-08-11 04:40:00,,0832.5,5.00,0.00,29.5,28.3,00.0,38.2,31.5,27.6,0000.0,0005.72,0014.38,0004.12
2022-08-11 04:41:00,,0832.6,5.00,0.00,29.5,28.5,00.0,38.2,31.5,27.6,0000.0,0005.74,0014.88,0004.12
2022-08-11 04:42:00,,0832.6,5.00,0.00,29.5,28.5,00.0,38.2,31.5,27.6,0000.0,0005.69,0015.25,0004.12
2022-08-11 04:43:00,,0832.6,5.01,0.00,29.5,27.9,00.0,38.2,31.3,27.5,0000.0,0005.74,0016.15,0004.12
2022-08-11 04:44:00,,0832.6,4.99,0.00,29.5,27.2,00.0,38.2,31.1,27.5,0000.0,0005.73,0015.86,0004.12
2022-08-11 04:45:00,,0832.5,5.00,0.00,29.4,27.0,00.0,38.1,31.1,27.6,0000.0,0005.74,0015.91,0004.13
2022-08-11 04:46:00,,0832.5,5.00,0.00,29.3,27.1,00.0,38.1,31.0,27.8,0000.0,0005.68,0015.90,0004.13
2022-08-11 04:47:00,,0832.5,5.01,0.00,29.3,27.2,00.0,38.1,31.1,27.9,0000.0,0005.64,0015.82,0004.13
2022-08-11 04:48:00,,0832.5,5.01,0.00,29.3,27.4,00.0,38.1,31.1,27.9,0000.0,0005.63,0015.63,0004.13
2022-08-11 04:49:00,,0832.5,4.99,0.00,29.3,27.6,00.0,38.1,31.2,27.9,0000.0,0005.58,0015.22,0004.13
2022-08-11 04:50:00,,0832.5,4.99,0.00,29.3,27.8,00.0,38.1,31.2,28.1,0000.0,0005.61,0015.33,0004.13
2022-08-11 04:51:00,,0832.5,5.00,0.00,29.3,27.9,00.0,38.1,31.3,28.0,0000.0,0005.58,0014.41,0004.14
2022-08-11 04:52:00,,0832.5,4.99,0.00,29.4,28.1,00.0,38.1,31.3,28.0,0000.0,0005.54,0014.06,0004.14
2022-08-11 04:53:00,,0832.5,5.00,0.00,29.4,28.2,00.0,38.2,31.4,28.0,0000.0,0005.56,0014.07,0004.14
2022-08-11 04:54:00,,0832.5,5.00,0.00,29.4,28.4,00.0,38.2,31.4,28.0,0000.0,0005.52,0014.00,0004.13
2022-08-11 04:55:00,,0832.5,5.00,0.00,29.5,28.5,00.0,38.2,31.5,28.0,0000.0,0005.53,0013.83,0004.13
2022-08-11 04:56:00,,0832.6,4.99,0.00,29.5,28.4,00.0,38.2,31.5,28.1,0000.0,0005.52,0014.22,0004.13
2022-08-11 04:57:00,,0832.6,5.00,0.00,29.5,27.9,00.0,38.2,31.3,28.2,0000.0,0005.56,0013.87,0004.13
2022-08-11 04:58:00,,0832.6,5.00,0.00,29.5,27.5,00.0,38.2,31.3,28.3,0000.0,0005.61,0013.59,0004.13
2022-08-11 04:59:00,,0832.6,5.00,0.00,29.4,27.5,00.0,38.2,31.2,28.5,0000.0,0005.62,0013.77,0004.13
